Weather History for Elizabethtown, NC

Change the Weather History Date:

Thursday, March 7, 2013

  Actual Average (KILM) Record (KILM)
Temperature  
Mean Temperature 44 °F 53 °F  
Max Temperature 56 °F 64 °F 87 °F (1974)
Min Temperature 33 °F 42 °F 20 °F (1960)
Degree Days  
Heating Degree Days 20 13  
Month to date heating degree days 93  
Since 1 July heating degree days 2022  
Cooling Degree Days 0 0  
Month to date cooling degree days 0  
Year to date cooling degree days 5  
Moisture  
Dew Point 29 °F    
Average Humidity 55    
Maximum Humidity 79    
Minimum Humidity 34    
Precipitation  
Precipitation 0.00 in 0.15 in 1.80 in (1944)
Month to date precipitation 0.97  
Year to date precipitation 8.35  
Snow  
Snow 0.00 in 0.00 in 0.30 in (1962)
Month to date snowfall 0.0  
Since 1 July snowfall 1.5  
Snow Depth -    
Sea Level Pressure  
Sea Level Pressure 30.13 in    
Wind  
Wind Speed 7 mph (NW)    
Max Wind Speed 15 mph    
Max Gust Speed 21 mph    
Visibility 10 miles    
Events      
T = Trace of Precipitation, MM = Missing Value Source: NWS Daily Summary

Daily Weather History Graph

Daily Weather History Graph

Search for Another Location

Airport:

Trip Planner

Search our weather history database for the weather conditions in past years. The results will help you decide how hot, cold, wet, or windy it might be!

Date:

Astronomy

Mar. 07, 2013 Rise Set
Actual Time 6:35 AM EST 6:15 PM EST
Civil Twilight 6:10 AM EST 6:40 PM EST
Nautical Twilight 5:41 AM EST 7:09 PM EST
Astronomical Twilight 5:11 AM EST 7:39 PM EST
Moon 3:24 AM EST (3/7) 2:09 PM EST (3/7)
Length of Visible Light 12h 30m
Length of Day
11h 40m
Waning Crescent, 20% of the Moon is Illuminated
Mar 7
Waning Crescent
Mar 11
New
Mar 19
First Quarter
Mar 27
Full
Apr 3
Last Quarter

Hourly Weather History & Observations

Time (EST) Temp. Windchill Dew Point Humidity Pressure Visibility Wind Dir Wind Speed Gust Speed Precip Events Conditions
12:15 AM 41.4 °F 35.7 °F 28.4 °F 60% 30.02 in 10.0 mi NW 9.2 mph - N/A   Clear
12:35 AM 40.6 °F 35.4 °F 28.0 °F 61% 30.03 in 10.0 mi WNW 8.1 mph - N/A   Clear
12:55 AM 40.1 °F 34.1 °F 28.2 °F 63% 30.04 in 10.0 mi NW 9.2 mph - N/A   Clear
1:15 AM 40.1 °F 34.1 °F 28.2 °F 63% 30.04 in 10.0 mi NW 9.2 mph - N/A   Clear
1:35 AM 39.6 °F 36.3 °F 28.2 °F 64% 30.05 in 10.0 mi WNW 4.6 mph - N/A   Clear
1:55 AM 39.2 °F 33.0 °F 28.0 °F 64% 30.05 in 10.0 mi WNW 9.2 mph - N/A   Clear
2:15 AM 38.5 °F 32.7 °F 28.0 °F 66% 30.05 in 10.0 mi NW 8.1 mph - N/A   Clear
2:35 AM 38.3 °F 31.9 °F 27.9 °F 66% 30.06 in 10.0 mi WNW 9.2 mph - N/A   Clear
2:55 AM 38.3 °F 33.2 °F 28.2 °F 67% 30.06 in 10.0 mi NW 6.9 mph - N/A   Clear
3:15 AM 38.3 °F 33.2 °F 28.2 °F 67% 30.05 in 10.0 mi NW 6.9 mph - N/A   Clear
3:35 AM 38.3 °F 33.9 °F 28.4 °F 68% 30.05 in 10.0 mi NW 5.8 mph - N/A   Clear
4:15 AM 37.0 °F - 27.9 °F 69% 30.06 in 10.0 mi Calm Calm - N/A   Clear
4:35 AM 36.7 °F - 27.9 °F 70% 30.06 in 10.0 mi Calm Calm - N/A   Clear
4:55 AM 36.1 °F - 28.2 °F 73% 30.07 in 10.0 mi Calm Calm - N/A   Clear
5:15 AM 36.1 °F - 28.2 °F 73% 30.08 in 10.0 mi Calm Calm - N/A   Clear
5:35 AM 34.9 °F - 28.0 °F 76% 30.09 in 10.0 mi Calm Calm - N/A   Clear
5:55 AM 33.8 °F - 28.0 °F 79% 30.11 in 10.0 mi Calm Calm - N/A   Clear
6:15 AM 34.7 °F 28.8 °F 28.2 °F 77% 30.12 in 10.0 mi WNW 6.9 mph - N/A   Clear
6:35 AM 34.7 °F 28.1 °F 28.0 °F 77% 30.13 in 10.0 mi WNW 8.1 mph - N/A   Clear
6:55 AM 34.7 °F 28.1 °F 28.0 °F 77% 30.14 in 10.0 mi WNW 8.1 mph - N/A   Clear
7:15 AM 35.4 °F 29.0 °F 28.0 °F 75% 30.15 in 10.0 mi WNW 8.1 mph - N/A   Clear
7:35 AM 36.5 °F 29.7 °F 28.2 °F 72% 30.16 in 10.0 mi WNW 9.2 mph - N/A   Clear
7:55 AM 38.1 °F 31.2 °F 28.6 °F 69% 30.17 in 10.0 mi WNW 10.4 mph - N/A   Clear
8:15 AM 39.4 °F 32.7 °F 28.4 °F 65% 30.17 in 10.0 mi NW 10.4 mph - N/A   Clear
8:35 AM 41.5 °F 34.6 °F 28.8 °F 60% 30.18 in 10.0 mi NW 12.7 mph 18.4 mph N/A   Clear
8:55 AM 42.6 °F 35.2 °F 28.8 °F 58% 30.18 in 10.0 mi NW 15.0 mph 19.6 mph N/A   Clear
9:15 AM 43.9 °F 38.3 °F 29.3 °F 57% 30.18 in 10.0 mi NW 10.4 mph 20.7 mph N/A   Clear
9:35 AM 45.3 °F 40.6 °F 29.3 °F 54% 30.17 in 10.0 mi NNW 9.2 mph 16.1 mph N/A   Clear
9:55 AM 46.8 °F - 29.3 °F 51% 30.17 in 10.0 mi NW 12.7 mph 18.4 mph N/A   Clear
10:15 AM 48.6 °F - 29.1 °F 47% 30.17 in 10.0 mi North 6.9 mph - N/A   Clear
10:35 AM 48.6 °F - 28.8 °F 46% 30.17 in 10.0 mi NNW 8.1 mph 16.1 mph N/A   Clear
10:55 AM 50.0 °F - 28.6 °F 44% 30.16 in 10.0 mi North 6.9 mph - N/A   Scattered Clouds
11:15 AM 51.3 °F - 28.9 °F 42% 30.16 in 10.0 mi NW 9.2 mph - N/A   Clear
11:35 AM 50.9 °F - 28.0 °F 41% 30.16 in 10.0 mi NW 9.2 mph - N/A   Clear
11:55 AM 52.0 °F - 27.9 °F 39% 30.15 in 10.0 mi NW 6.9 mph - N/A   Clear
12:15 PM 52.2 °F - 27.7 °F 39% 30.14 in 10.0 mi NNW 5.8 mph 16.1 mph N/A   Clear
12:35 PM 52.3 °F - 27.9 °F 39% 30.13 in 10.0 mi North 5.8 mph - N/A   Clear
12:55 PM 53.8 °F - 27.7 °F 37% 30.13 in 10.0 mi NW 6.9 mph - N/A   Clear
1:15 PM 53.8 °F - 27.3 °F 36% 30.12 in 10.0 mi WNW 12.7 mph - N/A   Clear
1:35 PM 54.0 °F - 27.9 °F 37% 30.11 in 10.0 mi North 5.8 mph - N/A   Clear
1:55 PM 54.9 °F - 27.5 °F 35% 30.10 in 10.0 mi NW 9.2 mph - N/A   Clear
2:15 PM 54.3 °F - 27.7 °F 36% 30.09 in 10.0 mi NNW 8.1 mph 17.3 mph N/A   Clear
2:35 PM 55.8 °F - 28.6 °F 35% 30.09 in 10.0 mi WNW 10.4 mph 17.3 mph N/A   Clear
2:55 PM 55.8 °F - 28.4 °F 35% 30.09 in 10.0 mi NW 6.9 mph - N/A   Clear
3:15 PM 55.4 °F - 28.0 °F 35% 30.09 in 10.0 mi NW 10.4 mph 16.1 mph N/A   Clear
3:35 PM 56.3 °F - 28.0 °F 34% 30.09 in 10.0 mi NW 13.8 mph 20.7 mph N/A   Clear
3:55 PM 55.8 °F - 28.2 °F 35% 30.09 in 10.0 mi NW 12.7 mph 16.1 mph N/A   Clear
4:15 PM 56.3 °F - 28.8 °F 35% 30.09 in 10.0 mi North 5.8 mph - N/A   Clear
4:35 PM 56.1 °F - 28.4 °F 35% 30.10 in 10.0 mi NW 10.4 mph - N/A   Clear
5:15 PM 55.8 °F - 28.4 °F 35% 30.10 in 10.0 mi NW 8.1 mph - N/A   Clear
5:35 PM 55.2 °F - 28.6 °F 36% 30.11 in 10.0 mi NW 8.1 mph - N/A   Clear
5:55 PM 54.0 °F - 29.1 °F 39% 30.12 in 10.0 mi Calm Calm - N/A   Clear
6:15 PM 52.5 °F - 29.8 °F 42% 30.13 in 10.0 mi Calm Calm - N/A   Clear
6:35 PM 50.9 °F - 30.2 °F 45% 30.14 in 10.0 mi Calm Calm - N/A   Clear
6:55 PM 49.3 °F - 30.7 °F 49% 30.15 in 10.0 mi Calm Calm - N/A   Clear
8:55 PM 44.1 °F - 30.7 °F 59% 30.19 in 10.0 mi Calm Calm - N/A   Clear
9:15 PM 43.2 °F 41.5 °F 30.7 °F 62% 30.20 in 10.0 mi North 3.5 mph - N/A   Clear
9:35 PM 43.0 °F - 30.9 °F 62% 30.20 in 10.0 mi Calm Calm - N/A   Clear
9:55 PM 42.4 °F - 30.2 °F 62% 30.21 in 10.0 mi Calm Calm - N/A   Clear
10:15 PM 42.1 °F 40.2 °F 30.2 °F 63% 30.21 in 10.0 mi North 3.5 mph - N/A   Clear
10:35 PM 41.9 °F - 29.7 °F 62% 30.21 in 10.0 mi Calm Calm - N/A   Clear
10:55 PM 41.9 °F 40.0 °F 28.9 °F 60% 30.21 in 10.0 mi NNW 3.5 mph - N/A   Clear
11:15 PM 41.4 °F 39.4 °F 28.4 °F 60% 30.21 in 10.0 mi NNW 3.5 mph - N/A   Clear
11:35 PM 40.5 °F 38.4 °F 28.2 °F 62% 30.21 in 10.0 mi NNW 3.5 mph - N/A   Clear
11:55 PM 40.5 °F 38.4 °F 27.9 °F 61% 30.22 in 10.0 mi NNW 3.5 mph - N/A   Clear